Napa, CA (94558)

8:03 PM PDT on October 24, 2014 (GMT -0700)
Old Soda Springs Rd 850 ft | Change Station
CLOSE
Current Station
Personal Weather Station
Location: Napa, CA
Elevation: 846 ft
Nearby Weather Stations

Elev 846 ft 38.38 °N, 122.27 °W | Updated 32 seconds ago

Partly Cloudy
Partly Cloudy
59.6 °F
Feels Like 59.6 °F
N
4.0
Wind Variable Wind from SSW
Gusts 0.0 mph

Today
High -- | Low -- °F
--% Chance of Precip.
Yesterday
High -- | Low -- °F
Precip. -- in
7:27 AM 6:18 PM
New Moon, 2% visible
Pressure 29.87 in
Visibility 10.0 miles
Clouds Clear
Dew Point 55 °F
Humidity 85%
Rainfall 0.00 in
Snow Depth Not available.
UV 0 out of 12
Pollen 3.50 out of 12
Ozone Good
PM2.5 Good
Flu Activity Sporadic
METAR KAPC 250254Z AUTO 23009KT 10SM CLR 16/14 A2989 RMK AO2 SLP114 T01610144 53003

More Conditions Fewer Conditions

Pressure 29.87 in
Visibility 10.0 miles
Clouds Clear
Dew Point 55 °F
Humidity 85%
Rainfall 0.00 in
Snow Depth Not available.
UV 0 out of 12
Pollen 3.50 out of 12
Ozone Good
PM2.5 Good
Flu Activity Sporadic
METAR KAPC 250254Z AUTO 23009KT 10SM CLR 16/14 A2989 RMK AO2 SLP114 T01610144 53003

More Conditions Fewer Conditions

10-Day Weather Forecast

Almanac

Astronomy

Oct. 24, 2014 Rise Set
Actual Time 7:27 AM PDT 6:18 PM PDT
Civil Twilight 7:00 AM PDT 6:45 PM PDT
Nautical Twilight 6:29 AM PDT 7:16 PM PDT
Astronomical Twilight 5:58 AM PDT 7:47 PM PDT
Moon 8:11 AM PDT (10/24) 7:03 PM PDT (10/24)
Length of Visible Light 11h 45m
Length of Day
10h 51m
Tomorrow will be 2m 17s shorter.
New Moon, 2% of the Moon is Illuminated
Today
New Moon
Oct 30
First Quarter
Nov 6
Full
Nov 14
Last Quarter
Nov 22
New

Today's Extremes

State Highs State Lows

Community

WunderPhotos

Upload Photos

1,764,762 photos uploaded!

Nearby

Air Quality

  Air Quality AQ Index Pollutant
Yesterday Good
PM2.5
Yesterday Good
OZONE
Current Good
PM2.5
Current Good
OZONE
Friday Good
PM2.5
Saturday Good
OZONE
Sunday Moderate
PM2.5
Monday Moderate
PM2.5
Tuesday Moderate
PM2.5
Wednesday Moderate
PM2.5

Snow Depth

Station Depth Elevation
Rubicon #2 0 in 7500 ft
Burnside Lake 0 in 8139 ft
Leavitt Lake 1 in 9400 ft
Monitor Pass 0 in 8350 ft
Leavitt Meadows 1 in 7200 ft

Earthquake Activity

City Distance Mag. Time & Date
No recent earthquake activity has been reported nearby.
Minimum magnitude displayed is 2.5.

Coastal Water Temperatures

Place Temperature
San Francisco, CA 63.0 °F
Richmond, CA 64.0 °F
Port Chicago, CA 66.0 °F

Nearby Weather Stations